Regional Weather Roundup
Issued by NWS

Home | Current Version | Previous Version | Text Only | Print | Product List | Glossary On
Versions: 1 2 3 4 5 6 7 8 9 10 11 12 13 14 15 16 17 18 19 20 21 22 23 24 25 26 27 28 29 30 31 32 33 34 35 36 37 38 39 40 41 42 43 44 45 46 47 48 49 50
000
ASUS43 KMKX 060821
RWRWI

WISCONSIN REGIONAL WEATHER ROUNDUP
NATIONAL WEATHER SERVICE MILWAUKEE/SULLIVAN WI
300 AM CDT MON JUL 06 2015

NOTE: "FAIR" INDICATES FEW OR NO CLOUDS BELOW 12,000 FEET WITH NO
SIGNIFICANT WEATHER AND/OR OBSTRUCTIONS TO VISIBILITY.

WIZ001-002-006>008-014>016-023>028-060900-
NORTHWEST WISCONSIN

CITY           SKY/WX    TMP DP  RH WIND       PRES   REMARKS
SUPERIOR ARPT  CLOUDY    64  64  99 CALM      29.81R FOG
ASHLAND        CLOUDY    67  67 100 S8        29.80F
HAYWARD        LGT RAIN  67  65  93 SE6       29.86F
SIREN          RAIN      67  66  96 S10       29.84F
CUMBERLAND     CLOUDY    66  63  88 NE3       29.89R
RICE LAKE      HVY RAIN  68  65  89 N7        29.90S
CHETEK         LGT RAIN  70  69  98 CALM      29.89R
LADYSMITH      LGT RAIN  69  66  89 CALM      29.90S
EAU CLAIRE     CLOUDY    73  66  78 CALM      29.85R
MENOMONIE      CLOUDY    71  69  92 N9        29.86R
NEW RICHMOND   RAIN      70  69  99 E6        29.83S
OSCEOLA        HVY RAIN  69  69 100 E13       29.84F
$$

WIZ003>005-009-010-017-018-060900-
NORTH CENTRAL WISCONSIN

CITY           SKY/WX    TMP DP  RH WIND       PRES   REMARKS
MANITOWISH WTR CLOUDY    69  65  87 W5        29.89F
ARBOR VITAE    CLOUDY    70  65  84 S7        29.89F
WOODRUFF       CLOUDY    70  65  84 S7        29.89F
RHINELANDER    CLOUDY    69  63  81 SW9       29.91F
EAGLE RIVER    CLOUDY    70  61  73 SW7       29.90F
LAND O LAKES   CLOUDY    70  63  77 SW5       29.90F
PHILLIPS       DRIZZLE   69  64  85 CALM      29.89F
TOMAHAWK       CLOUDY    67  63  87 CALM      29.90F
MEDFORD        CLOUDY    67  64  91 S7        29.89F
MERRILL        CLOUDY    69  65  87 S3        29.90F
$$

WIZ029-030-035-036-043>047-060900-
CENTRAL WISCONSIN

CITY           SKY/WX    TMP DP  RH WIND       PRES   REMARKS
WAUSAU         CLOUDY    68  63  84 SE6       29.88F
MOSINEE        CLOUDY    66  64  94 S7        29.90F
MARSHFIELD     CLOUDY    68  62  81 S10       29.89F
STEVENS POINT  CLOUDY    67  63  86 S8        29.90F
WAUPACA        MOCLDY    68  66  93 SE6       29.93F
WAUTOMA        MOCLDY    66  66 100 CALM      29.93F
WISC RAPIDS    CLOUDY    68  62  81 S6        29.90F
CAMP DOUGLAS   CLOUDY    69  69 100 S8        29.87F
$$

WIZ011>013-019>022-031-037>040-048>050-060900-
NORTHEAST WISCONSIN

CITY           SKY/WX    TMP DP  RH WIND       PRES   REMARKS
ANTIGO         CLOUDY    64  63  96 S5        29.92F
SHAWANO        MOCLDY    69  64  81 S3        29.92F
OCONTO         MOCLDY    67  65  96 S3        29.93F
STURGEON BAY   MOCLDY    66  59  77 S10       29.97F
GREEN BAY      PTCLDY    66  62  87 S9        29.95F FOG
MANITOWOC      CLEAR     60  58  92 MISG      29.98F FOG
APPLETON       PTCLDY    66  61  82 S9        29.95F
CLINTONVILLE   MOCLDY    66  63  88 S5        29.92F
OSHKOSH        PTCLDY    66  61  84 S8        29.95F HAZE
$$

WIZ032>034-041-042-053>061-060900-
SOUTHWEST WISCONSIN

CITY           SKY/WX    TMP DP  RH WIND       PRES   REMARKS
LA CROSSE      CLOUDY    74  67  78 S15G22    29.84F
SPARTA         CLOUDY    71  63  76 S6        29.87F
VIROQUA        CLOUDY    69  66  89 S13       29.90F
BOSCOBEL       CLOUDY    72  65  78 S7        29.90F HAZE
PRAIRIE DU CHI CLOUDY    72  64  75 SE7       29.89F
PLATTEVILLE    PTCLDY    68  66  92 S9        29.95F
$$

WIZ056-057-062-063-064-067-068-060900-
SOUTH CENTRAL WISCONSIN

CITY           SKY/WX    TMP DP  RH WIND       PRES   REMARKS
REEDSBURG      MOCLDY    69  64  84 S10       29.92F
BARABOO/DELLS  MOCLDY    69  62  79 S8        29.93F
LONE ROCK      MOCLDY    69  64  84 E5        29.93F
MINERAL POINT  PTCLDY    66  64  94 SE9       29.95F FOG
MADISON        CLEAR     70  63  78 S6        29.96F
MIDDLETON      CLEAR     70  63  79 S6        29.97F
WATERTOWN      CLEAR     64  64 100 S3        29.98F
MONROE         CLEAR     64  63  94 S8        29.98F
JANESVILLE     CLEAR     64  63  94 SE3       29.99S
$$

WIZ051-052-058>065-066-070>072-060900-
SOUTHEAST WISCONSIN

CITY           SKY/WX    TMP DP  RH WIND       PRES   REMARKS
MILWAUKEE      PTCLDY    66  59  78 S5        30.01R
WAUKESHA       CLEAR     63  59  88 CALM      30.01F
MILWAUKEE/TIMM CLEAR     64  59  82 S6        30.01F
RACINE         CLEAR     66  60  81 SW3       30.03R
BURLINGTON     CLEAR     58  57  96 CALM      30.00F
KENOSHA        PTCLDY    64  59  83 S3        30.01S
FOND DU LAC    CLEAR     67  62  84 S7        29.97F
SHEBOYGAN      PTCLDY    59  58  96 CALM      29.98F FOG
WEST BEND      CLEAR     61  59  94 CALM      29.99F
JUNEAU         CLEAR     65  62  90 S6        30.00F
$$

LSZ147-162-060900-
LAKE SUPERIOR

STATION/POSITION TIME  TEMP    WIND        PRES    WAVE
                       AIR SEA DIR/SP/G            HT/PER
                 (UTC) (F)     (DEG/KT/KT) (MB)    (FT/S)
W MID LAKE BUOY  0750   54 39  210/ 10/ 10 1009.1S   1/ 4
DEVILS ISLAND    0800   65     240/ 13/ 15 1008.4F
PORT WING        0801   66     260/  3/  9 1009.8F
SAXON HARBOR     0720   69     180/  4/ 11 1009.5F
$$

LMZ867-665-643>646-060900-
LAKE MICHIGAN

STATION/POSITION TIME  TEMP    WIND        PRES    WAVE
                       AIR SEA DIR/SP/G            HT/PER
                 (UTC) (F)     (DEG/KT/KT) (MB)    (FT/S)
CHAMBERS ISLAND  0700   69     170/  5/ 15 1014.2R
N MID LAKE BUOY  0750   57 53  210/ 16/ 17 1014.1F   2/ 4
NORTHPORT PIER   0700   67     150/  3/  7 1014.2R
SISTER BAY       0614   68     180/ 13/ 17   N/A
KEWAUNEE LAKESHO 0700   63     200/  4/  6 1014.4R
SHEBOYGAN LAKESH 0800   62     180/ 13/ 13 1015.2F
PORT WASHINGTON  0800   62     190/  4/ 11 1015.9F
ATWATER BUOY     0800   65 59  150/  8/ 10 1017.0S
MILWAUKEE LAKESH 0800   67     180/  5/  6   N/A
KENOSHA   LAKESH 0800   69     200/  4/  5 1015.9S
$$

TC  - TEMPERATURE IN CELSIUS
VSB - VISIBILITY IN STATUTE MILES
WCI - WIND CHILL INDEX
HX  - HEAT INDEX



USA.gov is the U.S. government's official web portal to all federal, state and local government web resources and services.